This demonstration page uses our WeatherBlox Daily Observations layout. Learn more.

Left ArrowRight Arrow

Hourly Observations for December 8, 2022

Temp ( °F °C ) Dew Point ( °F °C ) Humidity (%) Winds ( mph kmh ) Pressure ( in mb ) Visibility ( mi km ) Precip ( " mm )
12:53 am 00:53 Cloudy 45 7.2 37 2.8 74 74 NNW 3 6 30.25 1025 10 16 0.00 0.00
1:53 am 01:53 Cloudy 44 6.7 38 3.3 79 79 Calm 30.26 1025 10 16 0.00 0.00
2:53 am 02:53 Cloudy 44 6.7 38 3.3 79 79 Calm 30.25 1024 10 16 0.00 0.00
3:53 am 03:53 Cloudy 43 6.1 37 2.8 79 79 Calm 30.25 1024 10 16 0.00 0.00
4:53 am 04:53 Cloudy 43 6.1 38 3.3 82 82 E 3 6 30.24 1024 10 16 0.00 0.00
5:29 am 05:29 Cloudy 43 6.1 39 3.9 86 86 Calm 30.27 1025 10 16 0.00 0.00
5:53 am 05:53 Cloudy 43 6.1 39 3.9 86 86 Calm 30.25 1025 10 16 0.00 0.00
6:53 am 06:53 Cloudy 43 6.1 39 3.9 86 86 Calm 30.25 1024 10 16 0.00 0.00
7:53 am 07:53 Cloudy 43 6.1 39 3.9 86 86 Calm 30.24 1024 10 16 0.00 0.00
8:53 am 08:53 Cloudy 44 6.7 39 3.9 82 82 Calm 30.25 1024 10 16 0.00 0.00
9:53 am 09:53 Cloudy 45 7.2 40 4.4 82 82 S 8 13 30.24 1024 9 14 0.00 0.00
10:53 am 10:53 Cloudy 46 7.8 40 4.4 79 79 S 12 19 30.24 1024 10 16 0.00 0.00
11:53 am 11:53 Cloudy 47 8.3 40 4.4 76 76 SSE 12 19 30.21 1023 10 16 0.00 0.00
12:53 pm 12:53 Cloudy 47 8.3 41 5 80 80 SSW 9 15 30.16 1021 9 14 0.00 0.00
1:40 pm 13:40 Cloudy with Light Rain 46 7.8 42 5.6 86 86 WSW 7 11 30.15 1021 6 10 0.01 0.25
1:53 pm 13:53 Cloudy with Light Rain 46 7.8 42 5.6 86 86 SW 7 11 30.14 1021 4 6 0.01 0.25
2:00 pm 14:00 Cloudy with Light Rain 46 7.8 42 5.6 86 86 WSW 7 11 30.14 1021 4 6 0.01 0.25
2:35 pm 14:35 Cloudy with Light Rain 45 7.2 43 6.1 93 93 W 5 7 30.12 1020 3 5 0.03 0.76
2:48 pm 14:48 Cloudy with Light Rain 45 7 43 6 93 93 VRB 6 9 30.12 1020 3 4 0.05 1.27
2:53 pm 14:53 Cloudy with Light Rain 45 7.2 43 6.1 93 93 WSW 6 9 30.11 1020 3 4 0.06 1.52
3:05 pm 15:05 Cloudy with Light Rain 45 7.2 43 6.1 93 93 W 6 9 30.12 1020 3 5 0.01 0.25
3:21 pm 15:21 Cloudy with Light Rain 46 7.8 43 6.1 89 89 SSW 5 7 30.11 1020 3 5 0.01 0.25
3:53 pm 15:53 Cloudy with Light Rain 47 8.3 44 6.7 90 90 SSE 12 19 30.09 1019 4 6 0.03 0.76
4:08 pm 16:08 Cloudy with Light Rain 47 8.3 44 6.7 90 90 S 15 24 30.10 1019 5 8 0.01 0.25
4:19 pm 16:19 Cloudy with Light Rain 47 8.3 43 6.1 86 86 SSE 17 28 30.09 1019 6 10 0.02 0.51
4:53 pm 16:53 Cloudy with Light Rain 48 8.9 43 6.1 83 83 S 18 30 30.07 1018 8 13 0.05 1.27
5:13 pm 17:13 Cloudy with Light Rain 47 8.3 44 6.7 90 90 S 13 20 30.09 1019 5 8 0.05 1.27
5:53 pm 17:53 Cloudy with Light Rain 48 8.9 44 6.7 86 86 S 13 20 30.08 1019 5 8 0.12 3.05
6:25 pm 18:25 Cloudy with Rain 47 8.3 44 6.7 90 90 SW 8 13 30.09 1019 3 5 0.08 2.03
6:38 pm 18:38 Cloudy with Heavy Rain 46 7.8 44 6.7 93 93 W 8 13 30.10 1019 2 3 0.15 3.81
6:53 pm 18:53 Cloudy with Heavy Rain 46 7.8 44 6.7 93 93 WNW 9 15 30.09 1019 3 4 0.26 6.60
7:04 pm 19:04 Cloudy with Rain 44 6.7 42 5.6 93 93 WNW 6 9 30.10 1019 4 6 0.04 1.02
7:27 pm 19:27 Cloudy with Light Rain 44 6.7 42 5.6 93 93 N 3 6 30.10 1019 4 6 0.09 2.29
7:53 pm 19:53 Cloudy 44 6.7 41 5 89 89 NNW 3 6 30.09 1019 10 16 0.10 2.54
8:53 pm 20:53 Mostly Clear 42 5.6 39 3.9 89 89 Calm 30.10 1019 10 16 0.00 0.00
9:53 pm 21:53 Clear with Mist and Fog 40 4.4 38 3.3 93 93 Calm 30.12 1020 6 10 0.00 0.00
10:53 pm 22:53 Clear 39 3.9 37 2.8 93 93 Calm 30.14 1021 10 16 0.00 0.00
11:15 pm 23:15 Mostly Clear 39 3.9 38 3.3 96 96 N 3 6 30.17 1022 7 11 0.00 0.00
11:53 pm 23:53 Clear 38 3.3 37 2.8 97 97 NNW 3 6 30.16 1021 7 11 0.00 0.00

Powered by AerisWeather